Weather in Solomna

Ukraine / Khmelnitsky District     49°23′38″N   26°20′57″E
temp.,
°C
wind,
m/s
gust,
m/s
humid.,
%
clouds,
%
prec.,
mm/h
press.,
hPa
HPBL,
m
23 april, fri
fri2300:00+6nw4689100 2.2 1018517
03:00+4wnw4891100 2.2 1018331
06:00+4wnw3788100 0.0 1019289
09:00+5nw4768100 0.0 1020610
12:00+8nw564840 0.0 10201755
15:00+9wnw564859 0.0 10191596
18:00+8nw7958100 0.8 10191532
21:00+4wnw34702 0.9 102062
24 april, sat
sat2400:00+3w410777 0.0 1021240
03:00+2w5118652 0.0 1021392
06:000nw5128980 0.3 1022519
09:00+3wnw610675 0.3 10231101
12:00+7wnw7941100 0.0 10232575
15:00+8wnw7939100 0.0 10222387
18:00+9wnw594031 0.0 10212256
21:00+4w226315 0.0 102211
25 april, sun
sun2500:00+4sw368171 0.0 1021124
03:00+4sw41188100 0.0 1020290
06:00+4wsw51088100 0.2 1020572
09:00+4nw6782100 0.3 1020864
12:00+6nw684558 0.0 10211618
15:00+8nw673821 0.0 10201995
18:00+8nw674081 0.0 10192020
21:00+3n33605 0.0 102041
26 april, mon
mon2600:00+2nw226334 0.0 102033
03:00+1w237526 0.0 101946
06:00−1w38785 0.0 1019162
09:00+4wnw610574 0.0 10191106
12:00+6wnw81042100 0.1 10182462
15:00+7nw7939100 0.1 10182389
18:00+7nw69407 0.0 10172076
21:00+3nnw2255100 0.0 101710
27 april, tue
tue2700:00+3ssw3454100 0.0 101766
03:00+2sw376477 0.0 1017146
06:000wsw38885 0.0 1017168
09:00+5wnw46560 0.0 1016549
12:00+8wnw45425 0.0 10161683
15:00+10wnw334176 0.0 10151837
18:00+11wsw234272 0.0 10141756
21:00+6ssw11554 0.0 101510